Time,TemperatureF,DewpointF,PressureIn,WindDirection,WindDirectionDegrees,WindSpeedMPH,WindSpeedGustMPH,Humidity,HourlyPrecipIn,Conditions,Clouds,dailyrainin,SolarRadiationWatts/m^2,SoftwareType,DateUTC
2015-05-30 00:06:00,48.7,45.9,29.76,West,275,3.0,6.0,90,0.00,,,0.00,0,Wunderground v.1.15,2015-05-29 22:06:00,
2015-05-30 00:11:00,48.7,46.2,29.77,West,270,3.0,3.0,91,0.00,,,0.00,0,Wunderground v.1.15,2015-05-29 22:11:00,
2015-05-30 00:16:00,48.7,46.2,29.77,West,272,2.0,3.0,91,0.00,,,0.00,0,Wunderground v.1.15,2015-05-29 22:16:00,
2015-05-30 00:21:00,48.7,46.2,29.77,West,272,3.0,4.0,91,0.00,,,0.00,0,Wunderground v.1.15,2015-05-29 22:21:00,
2015-05-30 00:26:00,48.7,46.2,29.77,West,273,3.0,4.0,91,0.00,,,0.00,0,Wunderground v.1.15,2015-05-29 22:26:00,
2015-05-30 00:31:00,48.7,46.2,29.77,West,271,2.0,2.0,91,0.00,,,0.00,0,Wunderground v.1.15,2015-05-29 22:31:00,
2015-05-30 00:36:00,48.7,46.2,29.77,West,271,2.0,2.0,91,0.00,,,0.00,0,Wunderground v.1.15,2015-05-29 22:36:00,
2015-05-30 00:41:00,48.7,46.2,29.77,West,271,2.0,2.0,91,0.00,,,0.00,0,Wunderground v.1.15,2015-05-29 22:41:00,
2015-05-30 00:46:00,48.7,46.2,29.78,West,270,2.0,2.0,91,0.00,,,0.00,0,Wunderground v.1.15,2015-05-29 22:46:00,
2015-05-30 00:51:00,48.8,46.3,29.78,West,270,2.0,3.0,91,0.00,,,0.00,0,Wunderground v.1.15,2015-05-29 22:51:00,
2015-05-30 00:56:00,48.7,46.2,29.77,West,270,2.0,3.0,91,0.00,,,0.00,0,Wunderground v.1.15,2015-05-29 22:56:00,
2015-05-30 01:01:00,48.7,46.2,29.78,West,270,2.0,2.0,91,0.00,,,0.00,0,Wunderground v.1.15,2015-05-29 23:01:00,
2015-05-30 01:11:00,48.5,46.0,29.78,West,270,2.0,2.0,91,0.00,,,0.00,0,Wunderground v.1.15,2015-05-29 23:11:00,
2015-05-30 01:16:00,48.4,45.9,29.78,West,270,2.0,2.0,91,0.00,,,0.00,0,Wunderground v.1.15,2015-05-29 23:16:00,
2015-05-30 01:21:00,48.3,45.8,29.78,West,270,2.0,2.0,91,0.00,,,0.00,0,Wunderground v.1.15,2015-05-29 23:21:00,
2015-05-30 01:26:00,48.2,45.7,29.79,West,270,2.0,2.0,91,0.00,,,0.00,0,Wunderground v.1.15,2015-05-29 23:26:00,
2015-05-30 01:31:00,48.1,45.6,29.79,West,270,2.0,2.0,91,0.00,,,0.00,0,Wunderground v.1.15,2015-05-29 23:31:00,
2015-05-30 01:36:00,48.1,45.6,29.79,West,276,2.0,4.0,91,0.00,,,0.00,0,Wunderground v.1.15,2015-05-29 23:36:00,
2015-05-30 01:41:00,48.0,45.5,29.79,West,279,3.0,3.0,91,0.00,,,0.00,0,Wunderground v.1.15,2015-05-29 23:41:00,
2015-05-30 01:46:00,47.9,45.4,29.79,West,279,3.0,3.0,91,0.00,,,0.00,0,Wunderground v.1.15,2015-05-29 23:46:00,
2015-05-30 01:51:00,47.8,45.3,29.79,West,279,3.0,3.0,91,0.00,,,0.00,0,Wunderground v.1.15,2015-05-29 23:51:00,
2015-05-30 01:56:00,47.7,45.2,29.79,West,279,2.0,3.0,91,0.00,,,0.00,0,Wunderground v.1.15,2015-05-29 23:56:00,
2015-05-30 02:01:00,47.6,45.1,29.79,West,279,1.0,1.0,91,0.00,,,0.00,0,Wunderground v.1.15,2015-05-30 00:01:00,
2015-05-30 02:06:00,47.4,44.9,29.79,West,279,1.0,1.0,91,0.00,,,0.00,0,Wunderground v.1.15,2015-05-30 00:06:00,
2015-05-30 02:16:00,47.1,44.6,29.79,West,279,1.0,2.0,91,0.00,,,0.00,0,Wunderground v.1.15,2015-05-30 00:16:00,
2015-05-30 02:21:00,47.0,44.5,29.79,West,279,1.0,1.0,91,0.00,,,0.00,0,Wunderground v.1.15,2015-05-30 00:21:00,
2015-05-30 02:26:00,46.9,44.4,29.79,West,279,1.0,1.0,91,0.00,,,0.00,0,Wunderground v.1.15,2015-05-30 00:26:00,
2015-05-30 02:31:00,46.8,44.3,29.79,West,279,1.0,3.0,91,0.00,,,0.00,0,Wunderground v.1.15,2015-05-30 00:31:00,
2015-05-30 02:36:00,46.7,44.2,29.79,West,279,1.0,3.0,91,0.00,,,0.00,0,Wunderground v.1.15,2015-05-30 00:36:00,
2015-05-30 02:41:00,46.7,44.2,29.79,West,279,1.0,3.0,91,0.00,,,0.00,0,Wunderground v.1.15,2015-05-30 00:41:00,
2015-05-30 02:46:00,46.7,44.2,29.79,West,279,2.0,3.0,91,0.00,,,0.00,0,Wunderground v.1.15,2015-05-30 00:46:00,
2015-05-30 02:51:00,46.8,44.3,29.80,West,279,2.0,2.0,91,0.00,,,0.00,0,Wunderground v.1.15,2015-05-30 00:51:00,
2015-05-30 02:56:00,46.8,44.3,29.80,West,279,0.0,2.0,91,0.00,,,0.00,0,Wunderground v.1.15,2015-05-30 00:56:00,
2015-05-30 03:01:00,46.7,44.2,29.80,West,279,0.0,0.0,91,0.00,,,0.00,0,Wunderground v.1.15,2015-05-30 01:01:00,
2015-05-30 03:06:00,46.6,44.1,29.80,West,279,0.0,3.0,91,0.00,,,0.00,0,Wunderground v.1.15,2015-05-30 01:06:00,
2015-05-30 03:11:00,46.5,44.0,29.80,West,279,1.0,1.0,91,0.00,,,0.00,0,Wunderground v.1.15,2015-05-30 01:11:00,
2015-05-30 03:16:00,46.5,44.0,29.80,West,279,1.0,1.0,91,0.00,,,0.00,0,Wunderground v.1.15,2015-05-30 01:16:00,
2015-05-30 03:26:00,46.4,43.9,29.81,West,279,0.0,1.0,91,0.00,,,0.00,0,Wunderground v.1.15,2015-05-30 01:26:00,
2015-05-30 03:31:00,46.3,43.8,29.81,West,279,1.0,1.0,91,0.00,,,0.00,0,Wunderground v.1.15,2015-05-30 01:31:00,
2015-05-30 03:41:00,46.1,43.6,29.81,West,279,0.0,1.0,91,0.00,,,0.00,0,Wunderground v.1.15,2015-05-30 01:41:00,
2015-05-30 03:46:00,46.0,43.5,29.81,West,279,1.0,1.0,91,0.00,,,0.00,0,Wunderground v.1.15,2015-05-30 01:46:00,
2015-05-30 03:51:00,45.9,43.4,29.81,West,279,1.0,1.0,91,0.00,,,0.00,0,Wunderground v.1.15,2015-05-30 01:51:00,
2015-05-30 04:01:00,45.8,43.6,29.81,West,279,1.0,1.0,92,0.00,,,0.00,0,Wunderground v.1.15,2015-05-30 02:01:00,
2015-05-30 04:06:00,45.8,43.6,29.81,West,279,0.0,3.0,92,0.00,,,0.00,0,Wunderground v.1.15,2015-05-30 02:06:00,
2015-05-30 04:11:00,45.7,43.5,29.82,West,279,0.0,0.0,92,0.00,,,0.00,0,Wunderground v.1.15,2015-05-30 02:11:00,
2015-05-30 04:21:00,45.6,43.4,29.81,West,279,0.0,0.0,92,0.00,,,0.00,0,Wunderground v.1.15,2015-05-30 02:21:00,
2015-05-30 04:26:00,45.6,43.4,29.82,West,279,1.0,3.0,92,0.00,,,0.00,0,Wunderground v.1.15,2015-05-30 02:26:00,
2015-05-30 04:31:00,45.8,43.6,29.82,West,279,1.0,1.0,92,0.00,,,0.00,0,Wunderground v.1.15,2015-05-30 02:31:00,
2015-05-30 04:36:00,45.9,43.7,29.82,West,279,1.0,2.0,92,0.00,,,0.00,0,Wunderground v.1.15,2015-05-30 02:36:00,
2015-05-30 04:41:00,46.1,43.9,29.82,West,279,1.0,1.0,92,0.00,,,0.00,0,Wunderground v.1.15,2015-05-30 02:41:00,
2015-05-30 04:46:00,46.2,44.0,29.82,West,279,1.0,1.0,92,0.00,,,0.00,0,Wunderground v.1.15,2015-05-30 02:46:00,
2015-05-30 04:51:00,46.2,44.0,29.82,West,279,1.0,1.0,92,0.00,,,0.00,0,Wunderground v.1.15,2015-05-30 02:51:00,
2015-05-30 04:56:00,46.1,43.9,29.82,West,279,1.0,3.0,92,0.00,,,0.00,0,Wunderground v.1.15,2015-05-30 02:56:00,
2015-05-30 05:06:00,45.9,43.7,29.82,West,279,1.0,2.0,92,0.00,,,0.00,0,Wunderground v.1.15,2015-05-30 03:06:00,
2015-05-30 05:11:00,45.9,43.7,29.82,West,278,1.0,3.0,92,0.00,,,0.00,0,Wunderground v.1.15,2015-05-30 03:11:00,
2015-05-30 05:21:00,45.9,43.7,29.82,West,278,1.0,1.0,92,0.00,,,0.00,0,Wunderground v.1.15,2015-05-30 03:21:00,
2015-05-30 05:26:00,45.9,43.4,29.83,West,278,1.0,2.0,91,0.00,,,0.00,0,Wunderground v.1.15,2015-05-30 03:26:00,
2015-05-30 05:35:00,45.8,43.3,29.83,West,278,1.0,2.0,91,0.00,,,0.00,0,Wunderground v.1.15,2015-05-30 03:35:00,
2015-05-30 05:41:00,45.8,43.3,29.83,West,278,1.0,1.0,91,0.00,,,0.00,5,Wunderground v.1.15,2015-05-30 03:41:00,
2015-05-30 05:46:00,45.7,43.2,29.83,West,278,1.0,1.0,91,0.00,,,0.00,5,Wunderground v.1.15,2015-05-30 03:46:00,
2015-05-30 05:51:00,45.7,43.2,29.83,West,278,1.0,1.0,91,0.00,,,0.00,7,Wunderground v.1.15,2015-05-30 03:51:00,
2015-05-30 05:56:00,45.6,43.1,29.83,West,278,0.0,3.0,91,0.00,,,0.00,14,Wunderground v.1.15,2015-05-30 03:56:00,
2015-05-30 06:01:00,45.6,43.1,29.83,West,278,0.0,1.0,91,0.00,,,0.00,9,Wunderground v.1.15,2015-05-30 04:01:00,
2015-05-30 06:06:00,45.5,43.0,29.83,West,278,1.0,1.0,91,0.00,,,0.00,14,Wunderground v.1.15,2015-05-30 04:06:00,
2015-05-30 06:11:00,45.5,43.0,29.84,West,278,1.0,2.0,91,0.00,,,0.00,18,Wunderground v.1.15,2015-05-30 04:11:00,
2015-05-30 06:16:00,45.5,43.0,29.84,West,278,2.0,3.0,91,0.00,,,0.00,12,Wunderground v.1.15,2015-05-30 04:16:00,
2015-05-30 06:26:00,45.8,43.3,29.84,West,271,2.0,3.0,91,0.00,,,0.00,28,Wunderground v.1.15,2015-05-30 04:26:00,
2015-05-30 06:31:00,46.0,43.5,29.84,West,271,2.0,2.0,91,0.00,,,0.00,37,Wunderground v.1.15,2015-05-30 04:31:00,
2015-05-30 06:36:00,46.1,43.6,29.85,West,271,2.0,4.0,91,0.00,,,0.00,19,Wunderground v.1.15,2015-05-30 04:36:00,
2015-05-30 06:41:00,46.3,43.8,29.85,West,270,2.0,3.0,91,0.00,,,0.00,25,Wunderground v.1.15,2015-05-30 04:41:00,
2015-05-30 06:51:00,46.7,43.9,29.85,West,270,2.0,2.0,90,0.00,,,0.00,26,Wunderground v.1.15,2015-05-30 04:51:00,
2015-05-30 06:56:00,47.0,43.9,29.85,West,272,2.0,7.0,89,0.00,,,0.00,25,Wunderground v.1.15,2015-05-30 04:56:00,
2015-05-30 07:01:00,47.4,44.0,29.85,West,278,4.0,4.0,88,0.00,,,0.00,23,Wunderground v.1.15,2015-05-30 05:01:00,
2015-05-30 07:11:00,48.3,44.3,29.85,WNW,286,5.0,5.0,86,0.00,,,0.00,25,Wunderground v.1.15,2015-05-30 05:11:00,
2015-05-30 07:16:00,48.6,44.6,29.85,WNW,282,4.0,5.0,86,0.00,,,0.00,26,Wunderground v.1.15,2015-05-30 05:16:00,
2015-05-30 07:21:00,48.9,44.6,29.85,WNW,289,4.0,4.0,85,0.00,,,0.00,30,Wunderground v.1.15,2015-05-30 05:21:00,
2015-05-30 07:26:00,49.2,44.6,29.85,WNW,282,5.0,5.0,84,0.00,,,0.00,47,Wunderground v.1.15,2015-05-30 05:26:00,
2015-05-30 07:31:00,49.6,45.0,29.85,WNW,284,4.0,8.0,84,0.00,,,0.00,86,Wunderground v.1.15,2015-05-30 05:31:00,
2015-05-30 07:41:00,50.4,45.4,29.85,West,270,5.0,5.0,83,0.00,,,0.00,84,Wunderground v.1.15,2015-05-30 05:41:00,
2015-05-30 07:46:00,50.9,45.6,29.85,West,275,5.0,5.0,82,0.00,,,0.00,111,Wunderground v.1.15,2015-05-30 05:46:00,
2015-05-30 07:51:00,51.3,45.3,29.85,WSW,244,5.0,5.0,80,0.00,,,0.00,156,Wunderground v.1.15,2015-05-30 05:51:00,
2015-05-30 07:56:00,51.8,45.5,29.85,WNW,291,6.0,8.0,79,0.00,,,0.00,56,Wunderground v.1.15,2015-05-30 05:56:00,
2015-05-30 08:01:00,51.8,44.8,29.85,WSW,258,7.0,11.0,77,0.00,,,0.00,14,Wunderground v.1.15,2015-05-30 06:01:00,
2015-05-30 08:06:00,50.8,43.8,29.87,West,280,9.0,11.0,77,0.00,,,0.01,5,Wunderground v.1.15,2015-05-30 06:06:00,
2015-05-30 08:11:00,49.5,43.6,29.87,WNW,293,10.0,11.0,80,0.19,,,0.03,5,Wunderground v.1.15,2015-05-30 06:11:00,
2015-05-30 08:16:00,48.5,43.6,29.87,West,278,7.0,11.0,83,0.17,,,0.04,11,Wunderground v.1.15,2015-05-30 06:16:00,
2015-05-30 08:21:00,47.9,43.6,29.87,West,270,4.0,4.0,85,0.21,,,0.06,12,Wunderground v.1.15,2015-05-30 06:21:00,
2015-05-30 08:26:00,47.4,43.4,29.87,SW,231,3.0,5.0,86,0.13,,,0.06,14,Wunderground v.1.15,2015-05-30 06:26:00,
2015-05-30 08:36:00,47.0,43.6,29.87,SW,217,2.0,4.0,88,0.06,,,0.07,44,Wunderground v.1.15,2015-05-30 06:36:00,
2015-05-30 08:41:00,46.9,43.8,29.88,SW,221,2.0,4.0,89,0.04,,,0.07,33,Wunderground v.1.15,2015-05-30 06:41:00,
2015-05-30 08:46:00,46.6,43.5,29.87,SW,215,4.0,4.0,89,0.00,,,0.07,56,Wunderground v.1.15,2015-05-30 06:46:00,
2015-05-30 08:56:00,47.0,44.5,29.87,WSW,242,2.0,3.0,91,0.00,,,0.07,408,Wunderground v.1.15,2015-05-30 06:56:00,
2015-05-30 09:01:00,48.2,46.0,29.87,WSW,247,3.0,3.0,92,0.00,,,0.07,350,Wunderground v.1.15,2015-05-30 07:01:00,
2015-05-30 09:06:00,49.4,47.2,29.88,WSW,251,3.0,3.0,92,0.00,,,0.07,387,Wunderground v.1.15,2015-05-30 07:06:00,
2015-05-30 09:11:00,50.4,48.2,29.88,WSW,252,3.0,5.0,92,0.00,,,0.07,436,Wunderground v.1.15,2015-05-30 07:11:00,
2015-05-30 09:20:00,50.4,47.3,29.88,SW,224,4.0,4.0,89,0.00,,,0.07,167,Wunderground v.1.15,2015-05-30 07:20:00,
2015-05-30 09:26:00,51.5,48.7,29.88,SW,222,3.0,4.0,90,0.00,,,0.07,260,Wunderground v.1.15,2015-05-30 07:26:00,
2015-05-30 09:36:00,51.9,48.8,29.89,West,280,2.0,3.0,89,0.00,,,0.07,214,Wunderground v.1.15,2015-05-30 07:36:00,
2015-05-30 09:41:00,51.8,48.7,29.89,West,280,2.0,4.0,89,0.00,,,0.07,176,Wunderground v.1.15,2015-05-30 07:41:00,
2015-05-30 09:46:00,51.8,48.4,29.89,West,278,4.0,12.0,88,0.00,,,0.07,162,Wunderground v.1.15,2015-05-30 07:46:00,
2015-05-30 09:51:00,51.5,47.5,29.89,West,262,7.0,10.0,86,0.00,,,0.07,178,Wunderground v.1.15,2015-05-30 07:51:00,
2015-05-30 09:56:00,51.2,45.6,29.89,WNW,288,9.0,13.0,81,0.00,,,0.07,151,Wunderground v.1.15,2015-05-30 07:56:00,
2015-05-30 10:01:00,51.2,45.9,29.90,West,276,8.0,13.0,82,0.00,,,0.07,148,Wunderground v.1.15,2015-05-30 08:01:00,
2015-05-30 10:11:00,53.0,47.3,29.90,West,281,7.0,7.0,81,0.00,,,0.07,387,Wunderground v.1.15,2015-05-30 08:11:00,
2015-05-30 10:16:00,54.2,48.5,29.90,West,272,7.0,11.0,81,0.00,,,0.07,485,Wunderground v.1.15,2015-05-30 08:16:00,
2015-05-30 10:26:00,55.3,48.6,29.90,West,276,5.0,7.0,78,0.00,,,0.07,659,Wunderground v.1.15,2015-05-30 08:26:00,
2015-05-30 10:31:00,55.4,49.0,29.90,West,278,5.0,9.0,79,0.00,,,0.07,659,Wunderground v.1.15,2015-05-30 08:31:00,
2015-05-30 10:41:00,56.2,47.7,29.91,WSW,247,7.0,7.0,73,0.00,,,0.07,795,Wunderground v.1.15,2015-05-30 08:41:00,
2015-05-30 10:46:00,56.2,46.9,29.91,SW,228,7.0,7.0,71,0.00,,,0.07,810,Wunderground v.1.15,2015-05-30 08:46:00,
2015-05-30 10:51:00,56.1,47.9,29.91,West,281,6.0,6.0,74,0.00,,,0.07,107,Wunderground v.1.15,2015-05-30 08:51:00,
2015-05-30 10:56:00,56.5,47.6,29.91,WSW,255,7.0,7.0,72,0.00,,,0.07,740,Wunderground v.1.15,2015-05-30 08:56:00,
2015-05-30 11:01:00,56.7,47.0,29.91,WNW,284,8.0,9.0,70,0.00,,,0.07,752,Wunderground v.1.15,2015-05-30 09:01:00,
2015-05-30 11:06:00,57.0,47.3,29.91,West,279,8.0,9.0,70,0.00,,,0.07,770,Wunderground v.1.15,2015-05-30 09:06:00,
2015-05-30 11:11:00,57.2,46.7,29.91,WNW,299,9.0,10.0,68,0.00,,,0.07,773,Wunderground v.1.15,2015-05-30 09:11:00,
2015-05-30 11:16:00,57.2,46.3,29.92,WNW,285,9.0,10.0,67,0.00,,,0.07,842,Wunderground v.1.15,2015-05-30 09:16:00,
2015-05-30 11:21:00,57.3,46.0,29.92,West,268,8.0,8.0,66,0.00,,,0.07,860,Wunderground v.1.15,2015-05-30 09:21:00,
2015-05-30 11:26:00,57.8,46.1,29.92,West,265,8.0,8.0,65,0.00,,,0.07,840,Wunderground v.1.15,2015-05-30 09:26:00,
2015-05-30 11:36:00,58.0,46.3,29.92,West,273,8.0,12.0,65,0.00,,,0.07,202,Wunderground v.1.15,2015-05-30 09:36:00,
2015-05-30 11:41:00,57.5,45.4,29.92,WNW,286,9.0,9.0,64,0.00,,,0.07,921,Wunderground v.1.15,2015-05-30 09:41:00,
2015-05-30 11:46:00,57.3,45.2,29.92,West,268,8.0,9.0,64,0.00,,,0.07,214,Wunderground v.1.15,2015-05-30 09:46:00,
2015-05-30 11:51:00,57.1,45.4,29.93,West,267,7.0,7.0,65,0.00,,,0.07,148,Wunderground v.1.15,2015-05-30 09:51:00,
2015-05-30 11:56:00,57.0,44.5,29.93,West,268,8.0,12.0,63,0.00,,,0.07,128,Wunderground v.1.15,2015-05-30 09:56:00,
2015-05-30 12:01:00,57.9,45.0,29.93,WNW,289,9.0,9.0,62,0.00,,,0.07,947,Wunderground v.1.15,2015-05-30 10:01:00,
2015-05-30 12:06:00,58.6,46.0,29.93,WNW,283,9.0,11.0,63,0.00,,,0.07,921,Wunderground v.1.15,2015-05-30 10:06:00,
2015-05-30 12:11:00,59.2,45.8,29.93,WNW,285,9.0,9.0,61,0.00,,,0.07,965,Wunderground v.1.15,2015-05-30 10:11:00,
2015-05-30 12:16:00,59.4,45.5,29.93,West,280,9.0,9.0,60,0.00,,,0.07,1049,Wunderground v.1.15,2015-05-30 10:16:00,
2015-05-30 12:26:00,58.2,44.8,29.94,WSW,247,8.0,12.0,61,0.00,,,0.07,983,Wunderground v.1.15,2015-05-30 10:26:00,
2015-05-30 12:31:00,59.8,45.9,29.94,West,274,8.0,9.0,60,0.00,,,0.07,1000,Wunderground v.1.15,2015-05-30 10:31:00,
2015-05-30 12:41:00,58.4,45.4,29.94,WNW,284,9.0,11.0,62,0.00,,,0.07,244,Wunderground v.1.15,2015-05-30 10:41:00,
2015-05-30 12:46:00,58.9,45.9,29.94,WNW,283,9.0,11.0,62,0.00,,,0.07,1067,Wunderground v.1.15,2015-05-30 10:46:00,
2015-05-30 12:51:00,60.4,46.0,29.95,WSW,250,8.0,11.0,59,0.00,,,0.07,933,Wunderground v.1.15,2015-05-30 10:51:00,
2015-05-30 12:56:00,60.3,45.5,29.95,West,264,8.0,14.0,58,0.00,,,0.07,990,Wunderground v.1.15,2015-05-30 10:56:00,
2015-05-30 13:01:00,59.7,44.9,29.95,NW,305,9.0,14.0,58,0.00,,,0.07,972,Wunderground v.1.15,2015-05-30 11:01:00,
2015-05-30 13:11:00,61.2,46.8,29.95,West,273,8.0,8.0,59,0.00,,,0.07,1018,Wunderground v.1.15,2015-05-30 11:11:00,
2015-05-30 13:16:00,61.5,46.1,29.95,West,274,8.0,11.0,57,0.00,,,0.07,1025,Wunderground v.1.15,2015-05-30 11:16:00,
2015-05-30 13:21:00,61.3,45.0,29.95,West,275,8.0,8.0,55,0.00,,,0.07,1032,Wunderground v.1.15,2015-05-30 11:21:00,
2015-05-30 13:31:00,60.3,45.0,29.96,WNW,296,9.0,11.0,57,0.00,,,0.07,1014,Wunderground v.1.15,2015-05-30 11:31:00,
2015-05-30 13:41:00,61.7,45.8,29.96,West,265,8.0,9.0,56,0.00,,,0.07,1013,Wunderground v.1.15,2015-05-30 11:41:00,
2015-05-30 13:46:00,61.4,45.1,29.96,West,278,9.0,9.0,55,0.00,,,0.07,870,Wunderground v.1.15,2015-05-30 11:46:00,
2015-05-30 13:51:00,62.1,45.7,29.96,West,262,8.0,9.0,55,0.00,,,0.07,1009,Wunderground v.1.15,2015-05-30 11:51:00,
2015-05-30 13:56:00,61.0,43.2,29.96,WNW,290,8.0,11.0,52,0.00,,,0.07,939,Wunderground v.1.15,2015-05-30 11:56:00,
2015-05-30 14:01:00,60.4,43.7,29.96,WNW,285,10.0,12.0,54,0.00,,,0.07,907,Wunderground v.1.15,2015-05-30 12:01:00,
2015-05-30 14:11:00,61.0,42.7,29.96,SW,219,10.0,10.0,51,0.00,,,0.07,715,Wunderground v.1.15,2015-05-30 12:11:00,
2015-05-30 14:16:00,61.1,43.3,29.97,WNW,282,9.0,11.0,52,0.00,,,0.07,904,Wunderground v.1.15,2015-05-30 12:16:00,
2015-05-30 14:21:00,60.5,42.8,29.97,WNW,295,11.0,11.0,52,0.00,,,0.07,900,Wunderground v.1.15,2015-05-30 12:21:00,
2015-05-30 14:26:00,60.8,42.0,29.97,West,261,11.0,11.0,50,0.00,,,0.07,898,Wunderground v.1.15,2015-05-30 12:26:00,
2015-05-30 14:36:00,62.2,44.3,29.97,NW,305,8.0,14.0,52,0.00,,,0.07,882,Wunderground v.1.15,2015-05-30 12:36:00,
2015-05-30 14:46:00,61.3,43.5,29.97,West,278,10.0,10.0,52,0.00,,,0.07,875,Wunderground v.1.15,2015-05-30 12:46:00,
2015-05-30 14:51:00,62.0,44.2,29.97,WNW,289,8.0,14.0,52,0.00,,,0.07,867,Wunderground v.1.15,2015-05-30 12:51:00,
2015-05-30 15:01:00,61.4,43.6,29.97,West,262,9.0,14.0,52,0.00,,,0.07,872,Wunderground v.1.15,2015-05-30 13:01:00,
2015-05-30 15:06:00,61.5,42.7,29.98,WSW,257,10.0,14.0,50,0.00,,,0.07,867,Wunderground v.1.15,2015-05-30 13:06:00,
2015-05-30 15:11:00,61.0,42.2,29.98,West,268,10.0,10.0,50,0.00,,,0.07,905,Wunderground v.1.15,2015-05-30 13:11:00,
2015-05-30 15:21:00,61.9,42.5,29.98,West,260,9.0,9.0,49,0.00,,,0.07,849,Wunderground v.1.15,2015-05-30 13:21:00,
2015-05-30 15:31:00,62.8,43.9,29.98,SW,214,8.0,8.0,50,0.00,,,0.07,874,Wunderground v.1.15,2015-05-30 13:31:00,
2015-05-30 15:36:00,63.5,43.4,29.98,WNW,288,6.0,8.0,48,0.00,,,0.07,824,Wunderground v.1.15,2015-05-30 13:36:00,
2015-05-30 15:41:00,63.1,43.6,29.99,West,280,7.0,8.0,49,0.00,,,0.07,809,Wunderground v.1.15,2015-05-30 13:41:00,
2015-05-30 15:46:00,62.9,43.4,29.98,West,268,8.0,8.0,49,0.00,,,0.07,821,Wunderground v.1.15,2015-05-30 13:46:00,
2015-05-30 15:51:00,63.3,43.8,29.98,WNW,282,7.0,9.0,49,0.00,,,0.07,817,Wunderground v.1.15,2015-05-30 13:51:00,
2015-05-30 15:56:00,63.1,42.0,29.98,WNW,291,7.0,9.0,46,0.00,,,0.07,831,Wunderground v.1.15,2015-05-30 13:56:00,
2015-05-30 16:06:00,63.2,42.1,29.99,West,268,8.0,8.0,46,0.00,,,0.07,724,Wunderground v.1.15,2015-05-30 14:06:00,
2015-05-30 16:11:00,63.6,43.0,29.99,WSW,256,8.0,8.0,47,0.00,,,0.07,752,Wunderground v.1.15,2015-05-30 14:11:00,
2015-05-30 16:21:00,64.4,43.7,29.99,WNW,284,6.0,6.0,47,0.00,,,0.07,735,Wunderground v.1.15,2015-05-30 14:21:00,
2015-05-30 16:31:00,62.8,42.8,30.00,WSW,252,8.0,8.0,48,0.00,,,0.07,703,Wunderground v.1.15,2015-05-30 14:31:00,
2015-05-30 16:36:00,62.8,41.1,30.00,South,187,8.0,11.0,45,0.00,,,0.07,737,Wunderground v.1.15,2015-05-30 14:36:00,
2015-05-30 16:41:00,64.2,43.5,30.00,SW,214,6.0,6.0,47,0.00,,,0.07,598,Wunderground v.1.15,2015-05-30 14:41:00,
2015-05-30 16:46:00,64.5,44.4,30.00,SSW,196,5.0,6.0,48,0.00,,,0.07,744,Wunderground v.1.15,2015-05-30 14:46:00,
2015-05-30 16:51:00,64.0,42.2,30.00,West,280,6.0,9.0,45,0.00,,,0.07,722,Wunderground v.1.15,2015-05-30 14:51:00,
2015-05-30 16:56:00,64.1,42.3,30.00,WSW,255,7.0,9.0,45,0.00,,,0.07,656,Wunderground v.1.15,2015-05-30 14:56:00,
2015-05-30 17:01:00,63.8,42.0,30.00,West,260,7.0,7.0,45,0.00,,,0.07,680,Wunderground v.1.15,2015-05-30 15:01:00,
2015-05-30 17:11:00,63.0,41.9,30.00,West,280,7.0,7.0,46,0.00,,,0.07,682,Wunderground v.1.15,2015-05-30 15:11:00,
2015-05-30 17:16:00,64.1,42.3,30.00,WSW,248,7.0,8.0,45,0.00,,,0.07,642,Wunderground v.1.15,2015-05-30 15:16:00,
2015-05-30 17:36:00,64.1,41.7,30.00,SW,220,6.0,6.0,44,0.00,,,0.07,577,Wunderground v.1.15,2015-05-30 15:36:00,
2015-05-30 17:41:00,65.1,42.0,30.00,WSW,257,5.0,5.0,43,0.00,,,0.07,587,Wunderground v.1.15,2015-05-30 15:41:00,
2015-05-30 17:51:00,61.9,41.4,30.00,West,270,6.0,6.0,47,0.00,,,0.07,128,Wunderground v.1.15,2015-05-30 15:51:00,
2015-05-30 17:56:00,60.9,42.1,30.00,WNW,290,6.0,7.0,50,0.00,,,0.07,113,Wunderground v.1.15,2015-05-30 15:56:00,
2015-05-30 18:11:00,63.0,44.6,30.00,WNW,286,5.0,5.0,51,0.00,,,0.07,510,Wunderground v.1.15,2015-05-30 16:11:00,
2015-05-30 18:20:00,63.7,43.1,30.00,West,281,6.0,6.0,47,0.00,,,0.07,237,Wunderground v.1.15,2015-05-30 16:20:00,
2015-05-30 18:25:00,62.1,43.2,30.01,West,270,6.0,7.0,50,0.00,,,0.07,487,Wunderground v.1.15,2015-05-30 16:25:00,
2015-05-30 18:30:00,62.5,42.5,30.00,NW,305,6.0,6.0,48,0.00,,,0.07,397,Wunderground v.1.15,2015-05-30 16:30:00,
2015-05-30 18:40:00,62.5,43.1,30.01,WSW,237,4.0,4.0,49,0.00,,,0.07,137,Wunderground v.1.15,2015-05-30 16:40:00,
2015-05-30 18:46:00,62.2,42.3,30.00,West,274,4.0,4.0,48,0.00,,,0.07,431,Wunderground v.1.15,2015-05-30 16:46:00,
2015-05-30 18:51:00,62.1,42.2,30.01,West,280,4.0,6.0,48,0.00,,,0.07,216,Wunderground v.1.15,2015-05-30 16:51:00,
2015-05-30 18:56:00,61.4,41.0,30.01,WSW,237,4.0,6.0,47,0.00,,,0.07,309,Wunderground v.1.15,2015-05-30 16:56:00,
2015-05-30 19:01:00,61.8,41.9,30.01,West,272,4.0,9.0,48,0.00,,,0.07,371,Wunderground v.1.15,2015-05-30 17:01:00,
2015-05-30 19:06:00,62.0,42.1,30.01,WSW,238,4.0,9.0,48,0.00,,,0.07,135,Wunderground v.1.15,2015-05-30 17:06:00,
2015-05-30 19:16:00,60.8,41.5,30.00,West,279,4.0,5.0,49,0.00,,,0.07,366,Wunderground v.1.15,2015-05-30 17:16:00,
2015-05-30 19:21:00,61.5,42.7,30.00,WSW,255,4.0,8.0,50,0.00,,,0.07,251,Wunderground v.1.15,2015-05-30 17:21:00,
2015-05-30 19:26:00,61.3,40.9,30.00,SW,235,4.0,8.0,47,0.00,,,0.07,325,Wunderground v.1.15,2015-05-30 17:26:00,
2015-05-30 19:31:00,61.8,40.8,30.00,West,274,5.0,5.0,46,0.00,,,0.07,299,Wunderground v.1.15,2015-05-30 17:31:00,
2015-05-30 19:36:00,62.1,41.6,30.00,West,267,4.0,5.0,47,0.00,,,0.07,251,Wunderground v.1.15,2015-05-30 17:36:00,
2015-05-30 19:41:00,61.3,40.3,30.00,WSW,237,4.0,4.0,46,0.00,,,0.07,223,Wunderground v.1.15,2015-05-30 17:41:00,
2015-05-30 19:46:00,61.2,41.9,30.00,SW,226,3.0,4.0,49,0.00,,,0.07,257,Wunderground v.1.15,2015-05-30 17:46:00,
2015-05-30 19:51:00,61.4,41.0,30.00,WNW,291,4.0,4.0,47,0.00,,,0.07,251,Wunderground v.1.15,2015-05-30 17:51:00,
2015-05-30 19:56:00,61.2,40.8,30.01,WSW,247,4.0,4.0,47,0.00,,,0.07,241,Wunderground v.1.15,2015-05-30 17:56:00,
2015-05-30 20:01:00,61.3,41.4,30.00,WSW,257,4.0,4.0,48,0.00,,,0.07,221,Wunderground v.1.15,2015-05-30 18:01:00,
2015-05-30 20:10:00,61.1,42.8,30.00,West,278,4.0,4.0,51,0.00,,,0.07,121,Wunderground v.1.15,2015-05-30 18:10:00,
2015-05-30 20:16:00,60.5,43.8,30.00,West,275,3.0,4.0,54,0.00,,,0.07,86,Wunderground v.1.15,2015-05-30 18:16:00,
2015-05-30 20:25:00,60.0,44.3,30.00,West,273,2.0,3.0,56,0.00,,,0.07,114,Wunderground v.1.15,2015-05-30 18:25:00,
2015-05-30 20:31:00,59.8,44.1,30.00,West,268,2.0,2.0,56,0.00,,,0.07,58,Wunderground v.1.15,2015-05-30 18:31:00,
2015-05-30 20:36:00,59.6,44.3,30.00,West,268,2.0,6.0,57,0.00,,,0.07,42,Wunderground v.1.15,2015-05-30 18:36:00,
2015-05-30 20:41:00,59.2,44.4,30.00,West,268,3.0,3.0,58,0.00,,,0.07,39,Wunderground v.1.15,2015-05-30 18:41:00,
2015-05-30 20:46:00,58.7,44.4,30.00,West,267,2.0,3.0,59,0.00,,,0.07,39,Wunderground v.1.15,2015-05-30 18:46:00,
2015-05-30 20:56:00,57.8,44.4,30.00,West,267,2.0,2.0,61,0.00,,,0.07,33,Wunderground v.1.15,2015-05-30 18:56:00,
2015-05-30 21:01:00,57.6,44.2,30.00,West,266,2.0,2.0,61,0.00,,,0.07,40,Wunderground v.1.15,2015-05-30 19:01:00,
2015-05-30 21:06:00,57.3,44.0,30.00,West,266,2.0,3.0,61,0.00,,,0.07,32,Wunderground v.1.15,2015-05-30 19:06:00,
2015-05-30 21:16:00,56.9,44.0,30.00,West,266,1.0,2.0,62,0.00,,,0.07,16,Wunderground v.1.15,2015-05-30 19:16:00,
2015-05-30 21:26:00,56.4,44.0,30.00,West,266,1.0,1.0,63,0.00,,,0.07,12,Wunderground v.1.15,2015-05-30 19:26:00,
2015-05-30 21:31:00,56.2,43.8,30.00,West,266,0.0,0.0,63,0.00,,,0.07,9,Wunderground v.1.15,2015-05-30 19:31:00,
2015-05-30 21:36:00,56.0,44.0,30.00,West,266,0.0,0.0,64,0.00,,,0.07,7,Wunderground v.1.15,2015-05-30 19:36:00,
2015-05-30 21:41:00,55.7,43.7,30.00,West,266,0.0,0.0,64,0.00,,,0.07,5,Wunderground v.1.15,2015-05-30 19:41:00,
2015-05-30 21:50:00,55.1,43.5,30.00,West,266,0.0,0.0,65,0.00,,,0.07,0,Wunderground v.1.15,2015-05-30 19:50:00,
2015-05-30 21:56:00,54.8,43.7,30.00,West,266,0.0,0.0,66,0.00,,,0.07,0,Wunderground v.1.15,2015-05-30 19:56:00,
2015-05-30 22:01:00,54.5,43.8,30.00,West,266,0.0,0.0,67,0.00,,,0.07,0,Wunderground v.1.15,2015-05-30 20:01:00,
2015-05-30 22:06:00,54.2,43.9,30.00,West,266,0.0,0.0,68,0.00,,,0.07,0,Wunderground v.1.15,2015-05-30 20:06:00,
2015-05-30 22:25:00,53.0,43.5,30.00,West,266,0.0,0.0,70,0.00,,,0.07,0,Wunderground v.1.15,2015-05-30 20:25:00,
2015-05-30 22:31:00,52.8,43.3,30.00,West,266,0.0,0.0,70,0.00,,,0.07,0,Wunderground v.1.15,2015-05-30 20:31:00,
2015-05-30 22:41:00,52.2,43.4,29.99,West,266,0.0,0.0,72,0.00,,,0.07,0,Wunderground v.1.15,2015-05-30 20:41:00,
2015-05-30 22:51:00,51.7,43.3,30.00,West,266,0.0,0.0,73,0.00,,,0.07,0,Wunderground v.1.15,2015-05-30 20:51:00,